Location: ??????
(56.0120°N, 39.1740°E)
Time: 23:00:12
(UTC+00:00)

SL-16 R/B - Pass Details

Date: 14 April 2026
Orbit: 841 x 845 km, 71.0° (Epoch: 13 May)

Event Time Altitude Azimuth Distance (km) Brightness Sun altitude
Rises 21:46:04 0° 317° (NW) 3,415 5.9 -24.2°
Reaches altitude 10° 21:49:01 10° 331° (NNW) 2,478 5.3 -24.1°
Maximum altitude 21:53:35 24° 24° (NNE) 1,686 4.5 -24.0°
Drops below altitude 10° 21:58:09 10° 78° (ENE) 2,474 4.9 -23.9°
Sets 22:01:05 0° 92° (E) 3,407 5.5 -23.9°
